Weather History for West Palm Beach, FL

Change the Weather History Date:

Friday, July 12, 2013

  Actual Average Record
Temperature  
Mean Temperature 83 °F 82 °F  
Max Temperature 91 °F 90 °F 97 °F (1980)
Min Temperature 75 °F 75 °F 69 °F (1936)
Degree Days  
Heating Degree Days 0 0  
Month to date heating degree days 0 0  
Since 1 June heating degree days 0 0  
Since 1 July heating degree days 0 0  
Cooling Degree Days 18 18  
Month to date cooling degree days 227 205  
Year to date cooling degree days 1901 1804  
Since 1 June cooling degree days 716 695  
Growing Degree Days 33 (Base 50)    
Moisture  
Dew Point 71 °F    
Average Humidity 67    
Maximum Humidity 82    
Minimum Humidity 52    
Precipitation  
Precipitation 1.35 in 0.19 in 2.75 in (1998)
Month to date precipitation 2.71 2.48  
Year to date precipitation 40.39 29.49  
Snow  
Snow 0.00 in - - ()
Month to date snowfall 0.0  
Since 1 June snowfall 0.0  
Since 1 July snowfall 0.0  
Snow Depth 0.00 in    
Sea Level Pressure  
Sea Level Pressure 29.94 in    
Wind  
Wind Speed 4 mph (SE)    
Max Wind Speed 18 mph    
Max Gust Speed 22 mph    
Visibility 8 miles    
Events Rain , Thunderstorm    
T = Trace of Precipitation, MM = Missing Value Source: NWS Daily Summary

Daily Weather History Graph

Daily Weather History Graph

Search for Another Location

Airport:

Trip Planner

Search our weather history database for the weather conditions in past years. The results will help you decide how hot, cold, wet, or windy it might be!

Date:

Astronomy

Jul. 12, 2013 Rise Set
Actual Time 6:35 AM EDT 8:16 PM EDT
Civil Twilight 6:09 AM EDT 8:42 PM EDT
Nautical Twilight 5:38 AM EDT 9:13 PM EDT
Astronomical Twilight 5:05 AM EDT 9:46 PM EDT
Moon 10:23 AM EDT (7/12) 10:56 PM EDT (7/12)
Length of Visible Light 14h 33m
Length of Day
13h 41m
Waxing Crescent, 17% of the Moon is Illuminated
Jul 12
Waxing Crescent
Jul 15
First Quarter
Jul 22
Full
Jul 29
Last Quarter
Aug 6
New

Hourly Weather History & Observations

Time (EDT) Temp. Heat Index Dew Point Humidity Pressure Visibility Wind Dir Wind Speed Gust Speed Precip Events Conditions
12:53 AM 80.1 °F 83.6 °F 71.1 °F 74% 29.96 in 10.0 mi Calm Calm - N/A   Scattered Clouds
1:53 AM 79.0 °F - 72.0 °F 79% 29.94 in 10.0 mi Calm Calm - N/A   Scattered Clouds
2:53 AM 78.1 °F - 71.1 °F 79% 29.94 in 10.0 mi NNW 3.5 mph - N/A   Mostly Cloudy
3:53 AM 79.0 °F - 72.0 °F 79% 29.93 in 10.0 mi Calm Calm - N/A   Mostly Cloudy
4:53 AM 78.1 °F - 71.1 °F 79% 29.92 in 10.0 mi Calm Calm - N/A   Scattered Clouds
5:53 AM 79.0 °F - 72.0 °F 79% 29.92 in 10.0 mi Calm Calm - N/A   Mostly Cloudy
6:53 AM 78.1 °F - 71.1 °F 79% 29.93 in 10.0 mi NW 3.5 mph - N/A   Mostly Cloudy
7:53 AM 82.0 °F 87.9 °F 73.9 °F 76% 29.94 in 10.0 mi Calm Calm - N/A   Mostly Cloudy
8:53 AM 82.9 °F 88.8 °F 73.0 °F 72% 29.96 in 10.0 mi WSW 4.6 mph - N/A   Mostly Cloudy
9:53 AM 86.0 °F 92.2 °F 72.0 °F 63% 29.96 in 10.0 mi West 6.9 mph - N/A   Mostly Cloudy
10:53 AM 88.0 °F 94.7 °F 72.0 °F 59% 29.96 in 10.0 mi Variable 3.5 mph - N/A   Mostly Cloudy
11:53 AM 89.1 °F 94.1 °F 70.0 °F 53% 29.96 in 10.0 mi Variable 3.5 mph - N/A   Mostly Cloudy
12:53 PM 87.1 °F 92.8 °F 71.1 °F 59% 29.95 in 10.0 mi SE 11.5 mph - N/A   Mostly Cloudy
1:01 PM 86.0 °F 91.8 °F 71.6 °F 62% 29.95 in 10.0 mi SSE 13.8 mph - N/A Thunderstorm Thunderstorm
1:47 PM 82.4 °F 86.3 °F 69.8 °F 66% 29.93 in 10.0 mi South 9.2 mph - 0.00 in Rain Light Rain
1:53 PM 82.9 °F 87.0 °F 70.0 °F 65% 29.93 in 10.0 mi South 6.9 mph - 0.00 in Rain Light Rain
2:53 PM 87.1 °F 93.6 °F 72.0 °F 61% 29.92 in 10.0 mi SSW 8.1 mph - 0.00 in   Mostly Cloudy
3:53 PM 90.0 °F 95.4 °F 70.0 °F 52% 29.91 in 10.0 mi Variable 4.6 mph - N/A   Scattered Clouds
4:53 PM 88.0 °F 92.9 °F 70.0 °F 55% 29.91 in 10.0 mi SSE 12.7 mph - N/A   Scattered Clouds
5:12 PM 86.0 °F 89.4 °F 68.0 °F 55% 29.91 in 10.0 mi West 9.2 mph - N/A Thunderstorm Thunderstorm
5:31 PM 82.4 °F 86.3 °F 69.8 °F 66% 29.92 in 2.0 mi NNE 11.5 mph 19.6 mph 0.12 in Rain , Thunderstorm Heavy Thunderstorms and Rain
5:40 PM 80.6 °F 84.6 °F 71.6 °F 74% 29.92 in 2.0 mi NNE 13.8 mph - 0.51 in Rain , Thunderstorm Heavy Thunderstorms and Rain
5:53 PM 78.1 °F - 72.0 °F 81% 29.94 in 2.0 mi ENE 6.9 mph - 0.72 in Rain , Thunderstorm Heavy Thunderstorms and Rain
5:58 PM 78.8 °F - 71.6 °F 78% 29.93 in 1.0 mi East 15.0 mph - 0.01 in Rain , Thunderstorm Heavy Thunderstorms and Rain
6:06 PM 77.0 °F - 71.6 °F 83% 29.93 in 0.5 mi East 10.4 mph - 0.17 in Rain , Thunderstorm Heavy Thunderstorms and Rain
6:13 PM 78.8 °F - 71.6 °F 78% 29.94 in 1.0 mi ENE 8.1 mph - 0.41 in Rain , Thunderstorm Heavy Thunderstorms and Rain
6:16 PM 78.8 °F - 71.6 °F 78% 29.94 in 2.0 mi East 10.4 mph - 0.47 in Rain , Thunderstorm Heavy Thunderstorms and Rain
6:27 PM 75.2 °F - 68.0 °F 78% 29.94 in 4.0 mi East 9.2 mph - 0.57 in Rain , Thunderstorm Thunderstorms and Rain
6:45 PM 75.2 °F - 69.8 °F 83% 29.94 in 10.0 mi SE 9.2 mph - 0.58 in Rain , Thunderstorm Light Thunderstorms and Rain
6:53 PM 75.0 °F - 69.1 °F 82% 29.95 in 10.0 mi SE 9.2 mph - 0.58 in Rain , Thunderstorm Light Thunderstorms and Rain
7:33 PM 77.0 °F - 71.6 °F 83% 29.94 in 10.0 mi SSW 3.5 mph - 0.01 in Rain Light Rain
7:53 PM 77.0 °F - 70.0 °F 79% 29.95 in 10.0 mi Calm Calm - 0.02 in Rain Light Rain
8:53 PM 77.0 °F - 71.1 °F 82% 29.94 in 10.0 mi Calm Calm - 0.03 in   Mostly Cloudy
9:53 PM 78.1 °F - 71.1 °F 79% 29.96 in 10.0 mi Calm Calm - N/A   Scattered Clouds
10:53 PM 78.1 °F - 71.1 °F 79% 29.97 in 10.0 mi South 3.5 mph - N/A   Scattered Clouds
11:53 PM 77.0 °F - 71.1 °F 82% 29.96 in 10.0 mi Calm Calm - N/A   Scattered Clouds